Hourly Data Report for May 03, 2012

All times are specified in Local Standard Time (LST). Add 1 hour to adjust for Daylight Saving Time where and when it is observed.

LONDON A
ONTARIO

43°01'59.000" N
81°09'04.000" W
278.00 m
6144473
71623
YXU

Download Data

Hourly Data (May 2012)
Hourly Data Report for May 3, 2012
Temp Definition
°C
Dew Point Temp Definition
°C
Rel Hum Definition
%
Wind Dir Definition
10's deg

Wind Spd Definition
km/h
Visibility Definition
km
Stn Press Definition
kPa
Hmdx Definition


Wind Chill Definition


Weather Definition


TIME
00:00 Legend Double Dagger 13.7 13.6 99   0 0.6 98.25     Fog
01:00 Legend Double Dagger 13.4 13.4 100   0 0.6 98.27     Fog
02:00 Legend Double Dagger 11.8 11.8 100   0 0.2 98.27     Fog
03:00 Legend Double Dagger 11.1 11.1 100   0 0.2 98.26     Fog
04:00 Legend Double Dagger 10.0 10.0 100 9 7 0.4 98.24     Fog
05:00 Legend Double Dagger 9.6 9.6 100   0 0.4 98.31     Fog
06:00 Legend Double Dagger 11.4 11.4 100   0 2.0 98.42     Fog
07:00 Legend Double Dagger 14.4 14.4 100 12 8 3.2 98.44     Fog
08:00 Legend Double Dagger 17.0 16.0 94 13 14 4.0 98.42     Fog
09:00 Legend Double Dagger 20.3 17.7 85 14 13 4.8 98.46 26   Fog
10:00 Legend Double Dagger 23.1 17.4 70 15 20 8.1 98.39 29   Fog
11:00 Legend Double Dagger 23.9 17.5 67 17 21 10.0 98.32 30   LegendNANA
12:00 Legend Double Dagger 25.9 19.4 67 18 21 10.0 98.22 33   LegendNANA
13:00 Legend Double Dagger 26.6 19.6 65 19 16 10.0 98.16 34   Mostly Cloudy
14:00 Legend Double Dagger 27.6 20.1 63 20 18 10.0 98.14 35   LegendNANA
15:00 Legend Double Dagger 27.9 19.8 61 19 23 10.0 98.05 35   LegendNANA
16:00 Legend Double Dagger 28.2 19.1 57 19 25 10.0 97.95 35   Mostly Cloudy
17:00 Legend Double Dagger 28.0 18.3 55 20 40 10.0 97.83 34   LegendNANA
18:00 Legend Double Dagger 26.1 17.6 59 21 19 10.0 97.83 32   LegendNANA
19:00 Legend Double Dagger 25.3 16.1 56 30 28 10.0 97.95 30   Mostly Cloudy
20:00 Legend Double Dagger 19.5 15.4 77 31 18 10.0 98.20     Thunderstorms
21:00 Legend Double Dagger 17.0 16.0 94   0 10.0 98.22     Thunderstorms
22:00 Legend Double Dagger 17.1 16.3 95 18 9 10.0 98.07     Cloudy
23:00 Legend Double Dagger 17.2 16.4 95 26 12 10.0 98.09     Rain Showers

Notes on Data Quality.

Legend

  • E = Estimated
  • M = Missing
  • NA = Not Available
  • ‡ = Partner data that is not subject to review by the National Climate Archives
Date modified: